User: anonymous   Login
Location: Curicchi
(45.0167°N, 12.0500°E)
Time: 13:27:30
(UTC+00:00)
Language:

Cosmos 1709 Rocket - Orbit

View from above orbital plane
View from above orbital plane
View from above satellite
View from above satellite

Ground track
Ground track

The orbit data is extracted from the following two-line orbital elements,

1 16369U 85116B   20218.76604804  .00000127  00000-0  11279-3 0  9997
2 16369  82.9358 216.2323 0036070 190.4533 342.8503 13.76860624739616
Epoch (UTC): 05 August 2020 18:23:06
Eccentricity: 0.0036070
inclination: 82.9358°
perigee height: 948 km
apogee height: 1001 km
right ascension of ascending node: 216.2323°
argument of perigee: 190.4533°
revolutions per day: 13.76860624
mean anomaly at epoch: 342.8503°
orbit number at epoch: 73961

The dashed part of the orbit path shows where the satellite is in the earth's shadow,  

DLR